Theta_e
336 344 350 350 349 349 350 348 347 347 345 344 343 345 344 345 344 345 346 347 348 346 346 345 345 344 344 343 343 344 345 347 346 346 346 345 344 344 344 344 343 340 344
336 345 347 350 351 349 349 349 348 347 343 344 342 341 344 341 340 340 341 343 343 344 343 341 343 342 341 341 342 345 345 344 343 342 341 343 343 341 341 340 341 338 342
342 344 345 348 350 350 349 349 348 346 342 342 342 341 340 342 340 339 339 338 338 340 339 340 340 340 340 342 344 344 344 342 341 340 338 333 334 339 340 338 337 337 338
340 341 343 345 348 349 349 348 347 346 342 342 341 340 341 342 340 338 338 340 338 338 338 339 339 340 341 341 342 343 342 340 338 336 332 332 333 338 338 336 337 338 337
337 341 342 344 347 349 349 347 347 346 343 342 342 340 341 342 340 339 340 339 336 337 338 337 338 338 338 340 341 342 340 338 335 331 329 331 331 334 336 335 335 335 336
337 340 342 345 347 348 348 347 347 345 343 342 341 339 340 340 341 341 339 337 336 336 336 335 335 336 339 340 340 336 339 336 331 325 326 330 329 335 335 335 335 333 334
337 339 341 343 345 346 347 347 346 345 343 342 341 339 338 338 340 340 338 336 335 334 334 334 334 335 337 336 335 335 335 334 325 323 324 325 327 334 334 334 333 332 331
336 338 339 336 339 342 344 345 345 345 343 340 340 339 337 338 339 339 337 336 336 334 333 333 334 334 334 334 333 334 333 328 323 323 323 325 333 333 332 332 331 330 329
336 336 336 337 335 335 338 339 342 343 341 340 339 340 338 338 337 337 339 338 336 333 332 332 334 333 333 332 331 331 329 327 322 324 325 325 333 331 332 330 328 327 327
333 335 334 334 335 334 334 333 336 337 338 337 335 333 331 332 331 331 330 337 336 333 333 334 333 332 331 330 329 328 326 325 321 321 322 324 330 331 330 328 327 326 326
331 332 332 333 333 333 333 330 331 332 332 331 329 327 325 326 325 326 327 333 336 336 333 333 332 331 329 327 326 325 324 318 319 319 320 327 329 328 327 327 326 324 323
328 330 332 331 331 332 334 331 332 332 329 328 327 325 325 325 324 324 322 326 330 330 332 331 330 328 324 319 319 322 319 318 317 318 320 327 326 325 325 324 324 322 321
329 330 331 331 331 330 330 329 330 330 330 328 326 325 325 322 322 321 319 319 320 320 322 323 321 320 320 319 320 318 318 318 316 318 321 326 325 324 323 321 321 321 320
328 330 331 333 333 331 329 329 329 329 328 328 327 327 322 320 320 320 319 319 318 318 318 318 317 318 316 317 317 318 318 318 315 317 318 322 326 322 321 320 321 320 319
328 329 330 331 332 332 330 329 329 327 328 328 327 327 324 320 318 320 319 319 318 317 318 317 316 316 315 316 317 318 318 318 317 317 316 318 323 324 322 323 322 322 320
330 329 330 331 332 332 333 331 332 331 329 327 327 326 325 322 319 319 319 319 318 318 318 317 315 314 314 316 316 317 318 318 318 317 316 316 321 325 324 324 324 323 323
330 331 330 330 331 333 333 332 332 331 331 328 326 327 325 323 320 319 318 318 318 318 317 315 314 314 314 315 316 317 317 317 317 317 316 315 316 320 323 325 325 325 325
327 330 331 332 331 330 333 332 332 332 331 331 330 327 326 324 321 319 318 318 318 317 316 314 313 312 312 312 312 313 315 316 316 316 316 315 314 315 319 324 326 325 325
324 327 330 331 329 330 333 333 333 333 332 332 331 330 328 325 323 319 318 318 317 315 314 313 312 311 310 309 310 310 311 311 312 314 314 314 314 314 314 317 321 321 325
321 324 328 330 329 329 332 333 333 332 332 333 331 330 330 328 325 320 318 317 316 314 312 311 311 310 310 309 311 310 308 308 309 309 311 313 313 314 314 315 314 316 317
319 322 327 328 328 328 328 330 330 329 330 331 332 330 330 329 327 323 319 317 316 314 312 310 309 308 307 306 305 305 305 307 307 309 311 311 312 313 312 313 313 314 316
315 318 322 329 329 329 329 329 327 330 330 331 332 331 330 329 328 326 323 319 317 315 312 311 308 307 307 309 306 304 300 303 305 308 306 308 310 310 311 312 311 313 312
300 301 308 319 328 330 330 328 327 329 328 328 328 329 330 330 329 328 325 323 320 317 315 315 312 310 309 306 305 306 302 301 301 308 305 306 307 306 308 310 310 311 311
301 302 301 302 303 314 328 328 327 326 325 327 328 329 329 329 329 328 327 324 323 320 317 315 313 312 310 308 306 307 307 305 303 301 303 304 305 304 307 308 307 306 308
303 304 303 301 300 301 310 325 325 325 326 326 327 326 327 327 327 326 326 325 323 322 318 315 313 312 311 312 308 305 304 304 302 302 301 303 303 302 303 300 302 302 304
302 303 304 299 299 301 306 316 322 321 323 322 322 324 324 324 324 324 324 324 323 321 319 317 316 314 313 312 312 310 307 304 301 300 299 300 302 305 305 303 301 301 301
Wind_Speed
2 5 9 11 12 13 15 15 16 15 15 17 15 15 17 17 17 16 15 17 16 18 19 19 18 19 19 20 19 19 19 21 21 21 21 21 22 22 21 19 18 14 21
9 6 10 12 11 13 15 14 15 15 15 16 16 16 15 19 18 18 16 15 16 18 17 17 17 18 18 17 16 16 19 19 19 18 17 18 19 20 21 19 17 15 19
11 9 9 12 13 13 15 13 14 15 15 16 16 16 14 19 19 18 16 16 16 17 17 16 17 16 16 16 16 17 16 19 18 18 15 9 12 19 19 18 16 16 15
12 8 8 11 13 14 14 13 14 15 15 16 16 16 15 16 18 17 18 15 16 17 18 18 18 18 17 16 15 17 19 20 18 15 9 10 10 18 18 18 19 18 17
11 8 8 10 10 11 12 13 14 14 14 14 16 15 15 15 18 17 16 16 17 17 17 18 18 17 15 14 14 17 19 19 16 12 9 8 5 12 16 16 15 17 16
11 9 9 11 12 13 13 13 15 15 14 13 15 14 14 14 16 17 16 14 15 16 16 15 16 14 12 13 16 18 16 18 13 7 6 8 6 12 15 15 16 17 15
11 9 8 12 11 12 12 12 14 15 14 13 13 14 13 13 13 16 15 13 15 14 14 14 15 14 13 14 14 14 11 13 7 6 7 6 5 12 14 15 15 16 15
12 9 8 9 10 11 11 12 13 15 14 13 12 13 12 12 12 12 14 13 12 16 12 12 12 13 11 12 11 13 14 12 8 7 6 5 9 12 12 13 14 14 13
12 10 7 6 8 10 10 10 12 14 13 12 11 11 10 10 11 12 10 13 14 13 11 11 12 11 10 10 9 11 12 10 7 5 6 4 10 12 13 13 12 11 11
10 10 8 6 6 6 5 9 10 11 11 12 11 11 9 9 9 9 7 12 13 12 11 11 11 10 9 7 8 9 10 7 6 6 4 3 7 10 10 10 10 10 10
10 10 8 8 7 7 6 6 8 10 10 10 8 9 7 4 5 6 6 8 12 12 11 9 8 7 6 4 5 7 7 2 4 4 3 6 7 8 8 8 8 8 8
11 12 11 10 8 8 6 6 6 7 4 5 5 6 4 5 4 4 6 9 9 10 9 6 4 4 3 2 3 5 2 3 4 4 3 6 5 6 6 7 7 5 6
11 9 11 10 10 8 6 4 3 3 3 4 6 5 4 4 4 4 3 3 4 6 3 3 1 1 2 1 2 2 1 3 2 3 4 5 3 4 4 4 4 5 5
8 8 8 10 12 10 6 5 5 5 4 3 4 6 4 3 4 4 3 4 4 3 3 2 2 2 2 1 1 2 2 2 3 3 4 7 3 3 3 4 4 4 5
9 8 8 6 5 9 8 6 6 5 4 5 5 5 5 4 5 4 4 4 4 3 4 3 3 2 0 2 2 2 3 1 3 3 2 8 7 6 5 6 6 7 6
13 12 8 7 6 5 8 9 7 6 5 4 4 5 6 5 4 4 4 4 4 4 4 4 4 3 3 2 2 2 3 3 2 4 4 4 9 9 9 9 9 9 9
13 14 13 10 8 7 8 7 4 4 5 5 4 6 6 5 5 5 4 4 4 4 5 3 3 2 2 2 4 4 4 4 3 3 3 4 5 10 11 13 12 12 12
12 14 13 11 11 9 7 4 4 3 4 4 5 5 6 6 6 5 4 4 4 4 4 3 3 3 3 3 3 4 4 4 5 5 4 4 5 5 8 14 14 15 16
12 13 13 13 13 11 8 5 5 4 3 3 4 4 7 7 6 5 4 4 5 4 3 3 3 2 3 3 3 4 4 4 5 4 7 6 6 6 5 10 14 14 17
10 11 14 12 12 10 7 5 4 4 4 4 4 4 6 6 7 5 4 5 4 4 4 3 4 3 3 4 4 4 4 5 5 5 7 6 7 7 7 7 6 9 16
7 9 13 13 12 9 6 7 6 7 5 5 4 6 6 5 7 7 5 5 4 4 5 4 2 4 3 1 2 3 4 7 8 8 8 8 8 9 7 8 5 6 7
8 7 8 12 13 11 9 7 4 5 3 6 5 6 6 7 6 6 6 6 6 4 5 6 5 2 3 4 2 1 4 5 3 6 4 6 9 5 8 9 8 9 6
5 3 3 6 11 12 12 7 3 4 2 3 4 4 6 7 7 7 8 6 6 6 7 7 7 8 5 2 5 3 2 4 3 2 3 5 6 4 5 6 8 9 8
3 4 2 2 3 4 9 11 12 7 6 4 4 5 6 8 8 7 7 7 7 5 6 6 5 5 4 5 2 6 4 2 3 4 4 4 4 6 7 6 6 6 7
4 4 3 2 1 1 3 7 8 7 6 4 3 5 5 5 6 6 6 6 6 5 6 5 4 5 5 5 5 2 4 4 4 7 7 5 3 4 5 5 6 5 8
5 6 3 1 1 2 4 5 7 7 6 5 4 4 3 2 3 4 4 5 5 4 6 6 7 7 7 7 7 6 6 4 3 5 7 6 8 6 5 5 6 7 6
Wind_Direction
129 127 129 121 113 109 107 104 96 91 89 90 89 85 87 78 71 62 64 75 77 77 78 80 77 79 76 76 75 73 76 76 73 72 74 72 72 69 61 57 60 62 68
133 129 109 106 114 109 108 106 104 96 94 96 93 86 88 89 80 74 72 69 65 70 72 78 79 78 76 73 71 74 84 80 75 70 61 62 69 67 62 60 59 61 63
124 128 116 109 103 106 110 113 109 102 102 100 96 94 94 94 90 90 84 88 87 85 81 80 80 79 78 72 69 67 76 77 74 69 64 64 66 65 66 64 62 63 65
130 126 120 119 114 114 115 115 113 105 103 103 99 94 89 96 94 91 86 88 89 84 83 83 82 79 78 72 67 70 76 72 63 54 56 59 64 71 67 64 63 63 68
124 118 120 108 103 108 111 125 118 109 106 106 100 96 85 87 101 92 85 86 91 85 86 85 81 78 78 73 61 75 77 75 70 62 52 59 64 72 71 71 70 67 60
120 118 119 111 104 105 102 127 121 112 110 109 105 102 96 87 102 100 94 94 93 87 91 89 83 79 72 73 56 49 86 80 72 58 52 43 52 72 75 76 77 72 68
122 122 121 113 109 102 100 117 125 118 113 113 112 109 102 92 88 101 99 98 96 101 93 87 87 76 67 61 55 45 52 93 79 69 59 41 51 76 79 82 77 73 67
123 115 117 114 111 100 95 99 127 120 115 114 114 111 107 97 84 96 111 109 106 98 96 97 85 77 72 63 49 45 75 82 77 73 57 40 73 75 83 81 75 72 67
121 118 117 116 116 109 110 107 123 123 121 116 112 98 90 90 81 68 94 118 99 98 97 91 87 79 68 59 46 45 55 69 82 77 74 47 67 77 80 81 82 80 79
128 127 130 126 118 111 111 111 120 123 119 117 115 111 103 108 104 92 67 122 113 109 104 86 93 89 77 50 32 24 44 85 100 93 72 55 64 88 80 81 87 87 86
138 143 145 150 148 140 134 130 118 120 121 120 122 128 121 120 101 92 88 125 108 107 104 92 94 100 95 52 19 22 44 90 94 89 81 73 79 89 92 89 94 93 91
156 157 160 160 159 152 148 142 133 136 137 138 142 148 128 135 127 109 91 86 79 95 101 99 104 122 70 351 337 20 38 125 103 109 103 92 89 88 101 104 103 99 108
160 161 166 167 160 158 146 153 147 153 156 159 164 168 158 139 136 128 109 99 116 116 118 128 152 150 271 267 299 347 305 68 138 128 136 121 105 108 121 135 133 132 137
160 151 158 168 166 155 152 164 164 166 174 174 184 173 146 139 145 156 151 162 161 158 169 179 193 249 227 108 65 16 4 56 146 151 169 153 169 171 170 176 176 173 174
166 167 165 144 151 147 158 167 170 180 174 175 174 173 147 161 163 166 177 171 184 169 184 195 205 211 297 314 333 334 315 343 135 177 177 186 192 205 212 205 203 206 207
175 172 171 170 175 174 161 172 176 177 171 168 167 173 170 164 175 173 178 181 191 185 180 182 187 196 221 219 256 264 267 288 279 175 197 207 204 207 220 228 228 225 226
179 178 177 175 180 197 199 188 193 163 166 162 176 177 176 178 185 174 175 183 192 188 181 183 202 194 216 237 231 240 241 248 252 258 202 216 225 226 222 227 234 237 236
169 177 175 176 183 178 189 200 198 197 162 173 169 173 190 184 184 178 180 195 196 189 180 184 185 211 224 222 240 248 246 249 254 256 243 218 225 230 236 233 233 237 239
172 167 174 177 175 179 179 179 180 194 184 181 172 168 183 188 184 183 188 203 193 188 191 192 221 191 227 244 240 249 248 245 255 254 247 245 229 223 226 237 235 235 239
169 166 162 171 173 170 160 164 172 185 185 182 191 189 183 189 184 182 192 192 185 178 199 187 198 207 200 216 247 259 263 258 249 245 243 237 233 233 225 224 232 241 241
167 163 168 168 176 166 167 181 190 199 196 198 198 197 195 182 190 183 187 189 189 191 202 186 176 210 257 139 18 317 279 252 248 240 239 243 242 237 227 229 224 232 237
154 183 170 181 174 177 179 187 175 175 187 197 193 197 196 188 189 195 191 194 194 192 200 198 179 193 234 180 186 169 301 316 269 246 247 243 251 230 237 240 237 242 232
112 90 170 180 182 183 184 172 160 131 146 164 188 193 203 205 203 194 201 198 195 193 213 203 193 196 232 222 219 191 273 257 323 291 253 245 249 230 241 235 239 239 235
65 50 31 42 113 169 176 180 180 178 185 181 177 192 198 202 206 205 203 200 208 203 205 210 190 195 159 226 191 232 246 208 274 307 302 264 234 244 245 250 250 246 240
57 35 337 323 359 85 137 178 191 180 186 165 177 185 192 195 199 203 206 207 210 205 205 188 178 205 199 228 209 199 219 232 238 253 274 289 304 253 256 251 247 235 232
35 48 23 8 359 57 105 160 177 180 169 152 182 206 184 160 182 222 216 216 213 207 202 204 214 211 213 219 228 219 216 201 210 214 247 258 257 263 237 235 237 246 239